www.pogodaiklimat.ru

Погода и климат >> Архив погоды >> Монголия >> Ундерхаан


ПОГОДА в Ундерхаане

  • Прогноз погоды в Ундерхаане
  • Монитор погоды в Ундерхаане

АРХИВ ПОГОДЫ в Ундерхаане

Время (UTC), дата Ветер
(напр.,м/с)
 
Видим.   Явления Облачность Т
(С)
Тd
(С)
f
(%)
Тe
(С)
Тes
(С)
Комфортность P
(гПа)
Po
(гПа)
Тmin
(С)
Tmax
(С)
R
(мм)
R24
(мм)
S
(см)
21 10.06 СЗ 2 50 км 9/9 600 м
[Cu Sc]
+17.7 +6.0 46 +18 +18 1004.4 889.6
00 11.06 ЮЗ 5 50 км 9/6 600 м
[Sc Ac As Cs]
+24.1 +3.6 26 +23 +24 комфорт 1001.9 889.8 +16.4
03 11.06 СЗ 9 50 км 9/0
[Ac As]
+24.5 +8.9 37 +25 +26 комфорт 1002.4 890.3
06 11.06 В 3 50 км {ливн. осадки} 8/8 600 м
[Cb cap]
+21.1 +11.5 54 +23 +26 комфорт 1003.9 890.4
09 11.06 Ю 3 50 км 6/4 600 м
[Cb calv Ci fib]
+25.0 +10.4 40 +26 +29 жарко 1000.4 888.7
12 11.06 Ю 4 50 км 4/3 600 м
[Cu med, cong Ci]
+25.4 +9.9 38 +26 +26 жарко 999.3 887.9 +26.9 0.6
15 11.06 СЗ 3 н/о 6/3 600 м
[Cb calv Ci]
+19.0 +6.2 43 +20 +20 1003.6 889.4
18 11.06 СВ 7
{16}
н/о 8/4 600 м
[Cb calv Ac lent Ci]
+18.4 +7.8 50 +18 +18 1006.8 892.0
21 11.06 С 8 50 км 9/5 600 м
[Cb calv Ac As]
+17.0 +6.2 49 +16 +16 1010.4 894.8
00 12.06 С 12
{14}
50 км 9/3 600 м
[Cu hum Ac lent Cs]
+17.1 +5.0 45 +15 +15 1010.7 895.0 +16.5
03 12.06 С 9
{16}
50 км 9/1 600 м
[Cu med, cong Ac As Ci]
+20.3 +2.8 31 +20 +21 1010.1 895.7
06 12.06 С 8
{14}
50 км 9/3 600 м
[Cu med, cong Ac As Ci]
+22.6 +2.0 26 +22 +23 комфорт 1008.8 895.4
09 12.06 СЗ 8 50 км 9/5 600 м
[Cu med, cong As trans]
+22.0 +2.2 27 +22 +22 комфорт 1008.2 894.6
12 12.06 С 9 50 км 6/0
[Ac lent Ci fib]
+21.5 +1.3 26 +21 +21 комфорт 1008.1 894.3 +23.4
15 12.06 С 6 н/о 3/0
[Ac lent]
+15.4 +1.2 38 +14 +14 1012.0 895.5
18 12.06 Ю 1 н/о ясно +10.0 +1.6 56 +10 +10 1015.4 896.4
21 12.06 З 2 50 км 3/0
[Ac lent]
+9.7 +1.7 57 +8 +8 1016.3 897.1
00 13.06 Ю 2 50 км 3/0
[Ci]
+15.6 +3.7 45 +16 +21 1013.6 897.1 +7.9
03 13.06 С 4 50 км 4/0
[Ac lent Ci]
+20.8 +2.0 29 +21 +29 комфорт 1010.5 896.2
06 13.06 СЗ 4 50 км 3/1 1000 м
[Cu hum Ci]
+25.1 +1.1 21 +24 +34 комфорт 1006.2 893.9
09 13.06 СВ 3 50 км 3/3 1000 м
[Cu hum Ci fib]
+27.5 +1.4 18 +25 +29 комфорт 1003.4 892.3
12 13.06 СВ 4 50 км 4/1 1000 м
[Cu hum Ci fib]
+24.4 +3.2 25 +24 +24 комфорт 1005.0 892.6 +28.0
15 13.06 С 3 н/о 1/0
[Ci fib]
+15.6 +2.9 42 +15 +15 1010.2 894.0
18 13.06 С 3 н/о 1/0
[Ci fib]
+13.3 +2.1 47 +12 +12 1011.6 894.4
21 13.06 СВ 3 50 км 3/0
[Ac lent Cc]
+12.4 +2.7 52 +11 +11 1012.3 894.7
00 14.06 СВ 4 50 км 1/0
[Ci fib]
+17.7 +3.5 39 +17 +21 1010.9 895.4 +10.4
03 14.06 В 4 50 км 5/0
[Ci]
+25.5 +3.1 23 +24 +34 комфорт 1006.4 894.3
06 14.06 Ю 3 50 км 6/1 1000 м
[Cu hum Ci]
+28.7 +1.1 17 +26 +38 жарко 1002.9 892.2
09 14.06 Ю 3
{11}
50 км 8/1 1000 м
[Cu hum Ci]
+30.0 -1.2 13 +27 +31 жарко 1000.5 890.6
12 14.06 В 3 50 км 8/1 1000 м
[Cu hum Ac lent Cc]
+26.8 +5.0 25 +26 +26 жарко 1001.7 890.6 +31.0
15 14.06 ЮВ 10
{15}
н/о 6/0
[Ac lent Cs]
+21.2 +1.8 28 +21 +21 комфорт 1005.0 891.5
18 14.06 Ю 11
{15}
н/о 8/0
[Ac lent Cs]
+19.1 +0.3 28 +18 +18 1005.1 890.8
21 14.06 Ю 5 50 км 9/0
[Ac As Ci fib]
+18.7 -0.2 28 +18 +18 1006.9 892.2
00 15.06 ЮВ 5 50 км 10/0
[Ac As]
+19.7 +1.9 31 +20 +21 1006.5 892.3 +17.4
03 15.06 ЮВ 8 50 км 10/3 1000 м
[Cu hum Ac As]
+24.1 +1.2 22 +23 +24 комфорт 1003.8 891.5
06 15.06 Ю 8 50 км 10/4 600 м
[Cu hum Ac As]
+25.0 +1.1 21 +24 +24 комфорт 1002.2 890.4
09 15.06 ЮВ 10 50 км 9/0
[As op]
+25.6 +1.7 21 +24 +24 комфорт 1000.2 888.8
12 15.06 ЮЗ 5
{12}
50 км 9/6 600 м
[Sc Ac lent]
+22.3 +8.9 42 +24 +24 комфорт 1001.7 889.0 +26.2
15 15.06 ЮЗ 2 н/о 9/6 600 м
[Sc Ac lent]
+18.4 +8.5 52 +19 +19 1005.2 890.7
18 15.06 СЗ 2 н/о слаб. дождь 10/10 600 м
[Sc As op]
+16.7 +9.8 64 +17 +17 1005.8 890.6
21 15.06 штиль 0 50 км в посл. час дождь 9/9 600 м
[Sc As op]
+14.0 +11.6 85 +14 +14 1007.1 890.6
00 16.06 штиль 0 50 км {дождь} 10/10 600 м
[Sc]
+16.2 +10.4 68 +16 +16 1005.9 890.5 +13.6 0.4
03 16.06 ЮВ 6 50 км 10/8 600 м
[Cb calv As trans]
+17.7 +9.1 57 +17 +18 1006.1 891.1
06 16.06 ЮВ 7 50 км 10/10 600 м
[Cb calv]
+18.4 +7.7 50 +18 +18 1005.2 890.6
09 16.06 В 8 50 км 9/8 600 м
[Cb calv As trans]
+20.0 +4.4 36 +20 +20 1003.5 889.7
12 16.06 В 4 50 км 9/0
[Ac As]
+18.1 +4.3 40 +18 +18 1005.1 890.4 +20.1
15 16.06 З 2 н/о 9/0
[Ac As]
+13.2 +3.8 53 +13 +13 1008.1 891.3
18 16.06 СЗ 3 н/о 9/0
[Ac As]
+13.1 +3.1 51 +12 +12 1008.1 891.2
21 16.06 Ю 1 50 км 9/0
[Ac As]
+10.4 +4.8 68 +10 +10 1009.5 891.4
00 17.06 СВ 2 50 км 9/0
[Ac lent Cs]
+18.0 +2.0 34 +19 +21 1006.5 891.6 +10.2
03 17.06 В 5 50 км 9/0
[Ac lent Cs]
+22.1 -1.1 21 +21 +26 комфорт 1005.0 891.8
06 17.06 В 6 50 км 8/3 600 м
[Cu med, cong Ac lent Cs]
+24.2 -1.0 19 +23 +26 комфорт 1003.7 891.3
09 17.06 В 5 50 км 8/3 600 м
[Cu med, cong Ac lent Cc]
+24.6 -8.0 11 +22 +24 комфорт 1003.4 891.3
12 17.06 СВ 3 50 км 4/0
[Ac lent Ci]
+22.4 -3.0 18 +21 +21 комфорт 1004.7 891.7 +25.2
15 17.06 С 3 н/о 3/0
[Cc]
+13.1 -2.6 34 +12 +12 1010.0 892.9
18 17.06 СВ 2 н/о 1/0
[Ac lent]
+12.3 -2.2 36 +12 +12 1010.9 893.4

 

Местоположение метеостанции Ундерхаан (Монголия): широта 47.32 долгота 110.63 высота над уровнем моря 1033 м.

В архиве по умолчанию представлена погода в Ундерхаане за последнюю неделю. Архивные данные за месяц целиком и за предыдущие месяцы, начиная с января 2011 года, Вы можете получить, выбрав интересующий диапазон дат из раскрывающегося списка и нажав кнопку "Ввод!".


*Определитесь, кто Вы:
робот инопланетянин человек

Внимание! Время в таблицах - всемирное. Для получения местного времени необходимо прибавить поправку, которая равна 8 ч.

Смотрите также архив погоды в соседних городах и на ближайших метеорологических станциях:

Погода в Баян-Ову (Монголия) (122 км)
Погода в Биндэре (Монголия) (145 км)
Погода в Татаале (Монголия) (181 км)
Погода в Чойре (Монголия) (208 км)
Погода в Баруун-Урте (Монголия) (213 км)
Погода в Баяндэлгэре (Монголия) (221 км)
Погода в Маанти (Монголия) (238 км)
Погода в Букукуне (Забайкальский край, Россия) (239 км)
Погода в Кыре (Забайкальский край, Россия) (267 км)
Погода в Мензе (Забайкальский край, Россия) (271 км)

Пояснения к столбцам:

Ветер - указаны скорость ветра в м/с - средняя за 10 мин, порывы в срок и между сроками (в фигурных скобках) и направление, откуда дует ветер: С - северный, СВ - северо-восточный, В - восточный, ЮВ - юго-восточный, Ю - южный, ЮЗ - юго-западный, З - западный, СЗ - северо-западный.
Видимость - горизонтальная дальность видимости в метрах или километрах. При видимости от 1 до 10 км при отсутствии осадков обычно наблюдается дымка, при ухудшении видимости до 1 км и менее - туман. В сухую погоду видимость может ухудшаться дымом, пылью или мглою.
Явления - указаны атмосферные явления, наблюдавшиеся в срок или в последний час перед сроком; фигурными скобками обозначены явления, наблюдавшиеся между сроками (за 1-3 часа до срока); квадратными скобками обозначены град или гололедные отложения с указанием их диаметра в мм.
Облачность - указаны через наклонную черту общая и нижняя облачность в баллах и высота нижней границы облаков в метрах; квадратными скобками обозначены формы облаков: Ci - перистые, Cs - перисто-слоистые, Cc - перисто-кучевые, Ac - высококучевые, As - высокослоистые, Sc - слоисто-кучевые, Ns - слоисто-дождевые, Cu - кучевые, Cb - кучево-дождевые. Подробнее классификацию облаков см. в Атласе облаков (PDF).
T - Температура воздуха - температура, измеренная на высоте 2 м над землей.
Td - Температура точки росы - температура, при понижении до которой содержащийся в воздухе водяной пар достигнет насыщения.
f - Относительная влажность воздуха - влажноcть воздуха, измеренная на высоте 2 м над землей.
Te - Эффективная температура - температура, которую ощущает одетый по сезону человек в тени. Характеристика душности погоды. При расчете учитывается влияние влажности воздуха и скорости ветра на теплоощущения человека.
Tes - Эффективная температура на солнце - температура, которую ощущает человек, с поправкой на солнечный нагрев. Характеристика знойности погоды. Зависит от высоты солнца над горизонтом, облачности и скорости ветра. Ночью, в пасмурную погоду, а также при ветре 12 м/с и более поправка равна нулю.
P - Атмосферное давление - приведенное к уровню моря атмосферное давление.
Po - Атмосферное давление - измеренное на уровне метеостанции атмосферное давление.
Tmin - Минимальная температура - минимум температуры воздуха на высоте 2 м над землей.
Tmax - Максимальная температура - максимум температуры воздуха на высоте 2 м над землей.
R - Количество осадков - Количество выпавших осадков за период времени, мм. При наведении курсора мыши на число - период времени, за который выпало указанное количество осадков.
R24 - Количество осадков - Количество выпавших осадков за 24 часа, мм.
S - Снежный покров - Высота снежного покрова, см. При наведении курсора мыши на число - состояние снежного покрова и степень покрытия местности в баллах.